Back to Top

Language: 

My Weather Underground Personal Weather Station Historical Data with Graphs...

Delerius Weather Station Historical Data
Daily Summary for June 7, 2017 Units:  English    Metric   Both
« Previous Day
Next Day »
Daily Weekly Monthly Yearly Custom
  High: Low: Average:
Temperature: 63.9 °F 51.6 °F 56.8 °F
Dew Point: 50.8 °F 43.9 °F 46.4 °F
Humidity: 89 % 50 % 69 %
Wind Speed: 25.0 mph 2.0 mph 15.2 mph
Wind Gust: 43.0 mph - -
Wind:- - West
Pressure: 29.81 in 29.42 in -
Precipitation: 0.00 in    
Historical Graphs
 
 
Tabular Data for June 7, 2017
Time Temperature Dew Point Pressure Wind Wind Speed Wind Gust Humidity Rainfall Rate (Hourly) solar Conditions
00:00 52.0 °F 47.6 °F 29.42 in West 17.0 mph 31.0 mph 85 % 0.00 in 0 W/m2
00:05 52.0 °F 47.6 °F 29.42 in WNW 17.0 mph 31.0 mph 85 % 0.00 in 0 W/m2
00:10 52.0 °F 47.6 °F 29.43 in West 16.0 mph 27.0 mph 85 % 0.00 in 0 W/m2
00:15 52.0 °F 47.6 °F 29.42 in WNW 15.0 mph 28.0 mph 85 % 0.00 in 0 W/m2
00:20 52.0 °F 47.6 °F 29.43 in West 15.0 mph 29.0 mph 85 % 0.00 in 0 W/m2
00:25 52.0 °F 47.6 °F 29.43 in West 15.0 mph 29.0 mph 85 % 0.00 in 0 W/m2
00:30 52.0 °F 47.6 °F 29.43 in West 15.0 mph 29.0 mph 85 % 0.00 in 0 W/m2
00:35 52.0 °F 47.6 °F 29.43 in West 17.0 mph 29.0 mph 85 % 0.00 in 0 W/m2
00:40 52.0 °F 47.6 °F 29.43 in West 17.0 mph 26.0 mph 85 % 0.00 in 0 W/m2
00:45 52.0 °F 47.6 °F 29.43 in West 17.0 mph 30.0 mph 85 % 0.00 in 0 W/m2
00:50 52.0 °F 47.6 °F 29.43 in West 15.0 mph 30.0 mph 85 % 0.00 in 0 W/m2
00:55 52.0 °F 47.9 °F 29.43 in West 15.0 mph 29.0 mph 86 % 0.00 in 0 W/m2
01:00 52.0 °F 47.6 °F 29.44 in West 17.0 mph 29.0 mph 85 % 0.00 in 0 W/m2
01:05 52.0 °F 47.9 °F 29.44 in West 16.0 mph 29.0 mph 86 % 0.00 in 0 W/m2
01:10 52.0 °F 47.6 °F 29.44 in West 17.0 mph 29.0 mph 85 % 0.00 in 0 W/m2
01:15 52.0 °F 47.9 °F 29.44 in West 18.0 mph 31.0 mph 86 % 0.00 in 0 W/m2
01:20 51.8 °F 47.7 °F 29.44 in West 18.0 mph 31.0 mph 86 % 0.00 in 0 W/m2
01:25 51.8 °F 47.7 °F 29.44 in West 19.0 mph 31.0 mph 86 % 0.00 in 0 W/m2
01:30 52.0 °F 47.9 °F 29.44 in West 19.0 mph 31.0 mph 86 % 0.00 in 0 W/m2
01:35 52.0 °F 47.6 °F 29.44 in West 20.0 mph 34.0 mph 85 % 0.00 in 0 W/m2
01:40 52.0 °F 47.6 °F 29.44 in West 19.0 mph 34.0 mph 85 % 0.00 in 0 W/m2
01:45 52.0 °F 47.6 °F 29.45 in West 17.0 mph 30.0 mph 85 % 0.00 in 0 W/m2
01:50 52.0 °F 47.6 °F 29.45 in West 17.0 mph 30.0 mph 85 % 0.00 in 0 W/m2
01:55 52.2 °F 47.8 °F 29.45 in West 17.0 mph 30.0 mph 85 % 0.00 in 0 W/m2
02:00 52.2 °F 47.8 °F 29.45 in West 18.0 mph 30.0 mph 85 % 0.00 in 0 W/m2
02:05 52.2 °F 47.8 °F 29.45 in West 17.0 mph 30.0 mph 85 % 0.00 in 0 W/m2
02:10 52.2 °F 47.8 °F 29.46 in West 17.0 mph 29.0 mph 85 % 0.00 in 0 W/m2
02:15 52.0 °F 47.9 °F 29.46 in West 18.0 mph 29.0 mph 86 % 0.00 in 0 W/m2
02:20 51.8 °F 47.7 °F 29.46 in West 18.0 mph 32.0 mph 86 % 0.00 in 0 W/m2
02:25 51.8 °F 47.7 °F 29.46 in West 18.0 mph 34.0 mph 86 % 0.00 in 0 W/m2
02:31 51.8 °F 47.7 °F 29.46 in West 17.0 mph 34.0 mph 86 % 0.00 in 0 W/m2
02:36 52.0 °F 47.6 °F 29.46 in West 17.0 mph 30.0 mph 85 % 0.00 in 0 W/m2
02:41 52.0 °F 47.9 °F 29.47 in West 18.0 mph 30.0 mph 86 % 0.00 in 0 W/m2
02:46 51.8 °F 47.7 °F 29.47 in WNW 18.0 mph 29.0 mph 86 % 0.00 in 0 W/m2
02:51 52.0 °F 47.9 °F 29.47 in WNW 17.0 mph 28.0 mph 86 % 0.00 in 0 W/m2
02:56 52.0 °F 48.2 °F 29.47 in West 18.0 mph 34.0 mph 87 % 0.00 in 0 W/m2
03:01 51.8 °F 48.1 °F 29.48 in West 19.0 mph 34.0 mph 87 % 0.00 in 0 W/m2
03:06 51.8 °F 47.7 °F 29.48 in West 18.0 mph 30.0 mph 86 % 0.00 in 0 W/m2
03:11 51.6 °F 47.9 °F 29.48 in West 17.0 mph 27.0 mph 87 % 0.00 in 0 W/m2
03:16 51.6 °F 47.9 °F 29.48 in West 15.0 mph 28.0 mph 87 % 0.00 in 0 W/m2
03:21 51.8 °F 48.1 °F 29.48 in West 16.0 mph 28.0 mph 87 % 0.00 in 0 W/m2
03:26 51.6 °F 47.9 °F 29.49 in West 17.0 mph 29.0 mph 87 % 0.00 in 0 W/m2
03:31 51.6 °F 47.9 °F 29.49 in West 15.0 mph 29.0 mph 87 % 0.00 in 0 W/m2
03:36 51.6 °F 47.6 °F 29.49 in WNW 16.0 mph 27.0 mph 86 % 0.00 in 0 W/m2
03:41 51.8 °F 47.4 °F 29.49 in WNW 18.0 mph 30.0 mph 85 % 0.00 in 0 W/m2
03:46 52.0 °F 47.3 °F 29.49 in WNW 19.0 mph 33.0 mph 84 % 0.00 in 0 W/m2
03:51 52.0 °F 47.3 °F 29.49 in West 18.0 mph 36.0 mph 84 % 0.00 in 0 W/m2
03:56 52.2 °F 47.2 °F 29.49 in West 19.0 mph 36.0 mph 83 % 0.00 in 0 W/m2
04:01 52.0 °F 47.0 °F 29.50 in West 22.0 mph 36.0 mph 83 % 0.00 in 0 W/m2
04:06 52.0 °F 47.0 °F 29.50 in West 21.0 mph 34.0 mph 83 % 0.00 in 0 W/m2
04:11 52.0 °F 47.0 °F 29.50 in West 18.0 mph 34.0 mph 83 % 0.00 in 0 W/m2
04:16 52.0 °F 47.0 °F 29.50 in West 19.0 mph 34.0 mph 83 % 0.00 in 0 W/m2
04:21 52.0 °F 47.0 °F 29.51 in WNW 21.0 mph 36.0 mph 83 % 0.00 in 0 W/m2
04:26 52.0 °F 47.0 °F 29.51 in WNW 21.0 mph 36.0 mph 83 % 0.00 in 0 W/m2
04:31 52.0 °F 47.0 °F 29.51 in WNW 18.0 mph 31.0 mph 83 % 0.00 in 0 W/m2
04:36 52.0 °F 46.7 °F 29.51 in WNW 18.0 mph 33.0 mph 82 % 0.00 in 0 W/m2
04:41 52.0 °F 46.7 °F 29.52 in WNW 19.0 mph 34.0 mph 82 % 0.00 in 0 W/m2
04:46 52.0 °F 46.7 °F 29.52 in WNW 18.0 mph 34.0 mph 82 % 0.00 in 0 W/m2
04:51 52.0 °F 46.7 °F 29.52 in WNW 16.0 mph 26.0 mph 82 % 0.00 in 0 W/m2
04:56 52.0 °F 46.3 °F 29.53 in WNW 17.0 mph 31.0 mph 81 % 0.00 in 0 W/m2
05:01 52.0 °F 46.3 °F 29.53 in WNW 18.0 mph 31.0 mph 81 % 0.00 in 0 W/m2
05:06 52.0 °F 46.3 °F 29.54 in WNW 18.0 mph 30.0 mph 81 % 0.00 in 5 W/m2
05:11 52.0 °F 46.3 °F 29.54 in WNW 17.0 mph 30.0 mph 81 % 0.00 in 5 W/m2
05:16 52.0 °F 46.0 °F 29.53 in WNW 17.0 mph 30.0 mph 80 % 0.00 in 7 W/m2
05:22 51.8 °F 45.8 °F 29.54 in WNW 16.0 mph 27.0 mph 80 % 0.00 in 7 W/m2
05:27 51.8 °F 45.8 °F 29.54 in WNW 16.0 mph 29.0 mph 80 % 0.00 in 7 W/m2
05:32 52.0 °F 46.0 °F 29.55 in WNW 17.0 mph 29.0 mph 80 % 0.00 in 7 W/m2
05:33 52.0 °F 46.0 °F 29.55 in WNW 18.0 mph 31.0 mph 80 % 0.00 in 7 W/m2
05:37 52.0 °F 46.0 °F 29.56 in WNW 18.0 mph 32.0 mph 80 % 0.00 in 7 W/m2
05:42 52.0 °F 46.0 °F 29.55 in WNW 18.0 mph 32.0 mph 80 % 0.00 in 9 W/m2
05:47 52.0 °F 46.0 °F 29.56 in WNW 18.0 mph 32.0 mph 80 % 0.00 in 14 W/m2
05:52 52.2 °F 45.8 °F 29.56 in WNW 19.0 mph 31.0 mph 79 % 0.00 in 18 W/m2
05:57 52.0 °F 46.0 °F 29.57 in WNW 17.0 mph 31.0 mph 80 % 0.00 in 12 W/m2
06:02 52.0 °F 46.0 °F 29.57 in WNW 14.0 mph 25.0 mph 80 % 0.00 in 19 W/m2
06:07 52.0 °F 46.0 °F 29.57 in WNW 14.0 mph 28.0 mph 80 % 0.00 in 18 W/m2
06:12 51.8 °F 46.2 °F 29.58 in WNW 14.0 mph 28.0 mph 81 % 0.00 in 23 W/m2
06:17 51.8 °F 45.8 °F 29.58 in WNW 13.0 mph 23.0 mph 80 % 0.00 in 32 W/m2
06:22 51.8 °F 45.8 °F 29.58 in WNW 14.0 mph 28.0 mph 80 % 0.00 in 44 W/m2
06:27 51.8 °F 45.8 °F 29.58 in WNW 16.0 mph 28.0 mph 80 % 0.00 in 46 W/m2
06:32 51.8 °F 45.5 °F 29.58 in WNW 17.0 mph 31.0 mph 79 % 0.00 in 35 W/m2
06:37 51.6 °F 45.3 °F 29.59 in WNW 17.0 mph 31.0 mph 79 % 0.00 in 47 W/m2
06:43 51.6 °F 45.3 °F 29.59 in WNW 18.0 mph 36.0 mph 79 % 0.00 in 39 W/m2
06:48 51.6 °F 45.0 °F 29.60 in WNW 19.0 mph 36.0 mph 78 % 0.00 in 58 W/m2
06:53 51.6 °F 45.0 °F 29.60 in WNW 18.0 mph 31.0 mph 78 % 0.00 in 62 W/m2
06:58 52.0 °F 45.3 °F 29.60 in WNW 17.0 mph 32.0 mph 78 % 0.00 in 67 W/m2
07:03 52.2 °F 45.5 °F 29.60 in WNW 18.0 mph 32.0 mph 78 % 0.00 in 107 W/m2
07:08 52.5 °F 45.5 °F 29.61 in WNW 19.0 mph 31.0 mph 77 % 0.00 in 84 W/m2
07:13 52.7 °F 45.3 °F 29.61 in WNW 18.0 mph 34.0 mph 76 % 0.00 in 90 W/m2
07:18 52.9 °F 45.5 °F 29.62 in WNW 19.0 mph 34.0 mph 76 % 0.00 in 371 W/m2
07:23 53.4 °F 45.7 °F 29.62 in WNW 19.0 mph 33.0 mph 75 % 0.00 in 199 W/m2
07:28 53.4 °F 45.3 °F 29.63 in WNW 17.0 mph 33.0 mph 74 % 0.00 in 171 W/m2
07:33 53.4 °F 45.3 °F 29.63 in WNW 17.0 mph 32.0 mph 74 % 0.00 in 118 W/m2
07:38 53.2 °F 45.2 °F 29.63 in WNW 18.0 mph 36.0 mph 74 % 0.00 in 79 W/m2
07:43 53.1 °F 45.0 °F 29.63 in WNW 18.0 mph 36.0 mph 74 % 0.00 in 111 W/m2
07:48 53.4 °F 45.3 °F 29.64 in WNW 19.0 mph 31.0 mph 74 % 0.00 in 404 W/m2
07:53 54.0 °F 45.5 °F 29.64 in WNW 18.0 mph 31.0 mph 73 % 0.00 in 452 W/m2
07:58 54.1 °F 45.3 °F 29.64 in WNW 20.0 mph 35.0 mph 72 % 0.00 in 330 W/m2
08:03 54.5 °F 46.0 °F 29.64 in WNW 21.0 mph 36.0 mph 73 % 0.00 in 345 W/m2
08:08 54.9 °F 45.6 °F 29.65 in WNW 20.0 mph 36.0 mph 71 % 0.00 in 462 W/m2
08:13 55.2 °F 46.0 °F 29.65 in WNW 20.0 mph 34.0 mph 71 % 0.00 in 471 W/m2
08:18 55.6 °F 45.6 °F 29.66 in WNW 20.0 mph 41.0 mph 69 % 0.00 in 499 W/m2
08:23 55.9 °F 45.9 °F 29.66 in WNW 21.0 mph 41.0 mph 69 % 0.00 in 461 W/m2
08:28 56.1 °F 46.1 °F 29.66 in WNW 20.0 mph 33.0 mph 69 % 0.00 in 570 W/m2
08:33 55.9 °F 45.9 °F 29.66 in WNW 19.0 mph 32.0 mph 69 % 0.00 in 550 W/m2
08:38 56.3 °F 45.5 °F 29.67 in WNW 19.0 mph 35.0 mph 67 % 0.00 in 541 W/m2
08:43 56.5 °F 45.7 °F 29.67 in WNW 18.0 mph 35.0 mph 67 % 0.00 in 564 W/m2
08:48 56.5 °F 44.9 °F 29.67 in WNW 18.0 mph 40.0 mph 65 % 0.00 in 635 W/m2
08:53 56.7 °F 45.8 °F 29.67 in WNW 19.0 mph 40.0 mph 67 % 0.00 in 183 W/m2
08:54 56.7 °F 45.4 °F 29.67 in WNW 20.0 mph 40.0 mph 66 % 0.00 in 163 W/m2
08:59 56.1 °F 45.7 °F 29.67 in WNW 18.0 mph 37.0 mph 68 % 0.00 in 114 W/m2
09:04 56.1 °F 45.7 °F 29.67 in WNW 20.0 mph 35.0 mph 68 % 0.00 in 624 W/m2
09:09 56.5 °F 46.0 °F 29.67 in WNW 21.0 mph 35.0 mph 68 % 0.00 in 622 W/m2
09:14 56.8 °F 46.0 °F 29.68 in WNW 21.0 mph 35.0 mph 67 % 0.00 in 123 W/m2
09:19 56.8 °F 45.6 °F 29.68 in WNW 22.0 mph 43.0 mph 66 % 0.00 in 628 W/m2
09:24 57.0 °F 45.4 °F 29.68 in WNW 23.0 mph 43.0 mph 65 % 0.00 in 638 W/m2
09:25 57.0 °F 45.4 °F 29.68 in WNW 23.0 mph 43.0 mph 65 % 0.00 in 642 W/m2
09:30 57.4 °F 45.7 °F 29.68 in WNW 23.0 mph 36.0 mph 65 % 0.00 in 656 W/m2
09:35 57.7 °F 46.0 °F 29.69 in WNW 22.0 mph 36.0 mph 65 % 0.00 in 680 W/m2
09:40 57.6 °F 45.9 °F 29.69 in WNW 23.0 mph 39.0 mph 65 % 0.00 in 679 W/m2
09:45 57.6 °F 45.9 °F 29.70 in WNW 24.0 mph 39.0 mph 65 % 0.00 in 694 W/m2
09:50 57.7 °F 45.6 °F 29.70 in WNW 22.0 mph 34.0 mph 64 % 0.00 in 705 W/m2
09:55 58.3 °F 45.3 °F 29.71 in WNW 20.0 mph 34.0 mph 62 % 0.00 in 888 W/m2
10:00 58.3 °F 44.9 °F 29.71 in WNW 20.0 mph 34.0 mph 61 % 0.00 in 575 W/m2
10:05 58.3 °F 45.3 °F 29.70 in WNW 19.0 mph 36.0 mph 62 % 0.00 in 786 W/m2
10:10 58.5 °F 45.9 °F 29.70 in WNW 18.0 mph 36.0 mph 63 % 0.00 in 807 W/m2
10:15 58.5 °F 45.9 °F 29.70 in WNW 22.0 mph 43.0 mph 63 % 0.00 in 775 W/m2
10:20 58.1 °F 46.4 °F 29.71 in West 25.0 mph 43.0 mph 65 % 0.00 in 893 W/m2
10:26 58.1 °F 46.8 °F 29.72 in WNW 23.0 mph 38.0 mph 66 % 0.00 in 480 W/m2
10:31 57.7 °F 46.9 °F 29.72 in West 21.0 mph 38.0 mph 67 % 0.00 in 338 W/m2
10:36 58.1 °F 46.8 °F 29.73 in West 20.0 mph 31.0 mph 66 % 0.00 in 874 W/m2
10:41 58.6 °F 46.5 °F 29.73 in West 19.0 mph 31.0 mph 64 % 0.00 in 288 W/m2
10:46 58.6 °F 46.5 °F 29.73 in West 18.0 mph 31.0 mph 64 % 0.00 in 276 W/m2
10:51 59.0 °F 46.8 °F 29.73 in West 17.0 mph 29.0 mph 64 % 0.00 in 1044 W/m2
10:56 59.2 °F 46.6 °F 29.73 in WNW 18.0 mph 29.0 mph 63 % 0.00 in 1092 W/m2
11:01 59.0 °F 44.7 °F 29.74 in WNW 21.0 mph 36.0 mph 59 % 0.00 in 353 W/m2
11:06 58.6 °F 45.7 °F 29.74 in WNW 20.0 mph 36.0 mph 62 % 0.00 in 450 W/m2
11:11 58.6 °F 46.5 °F 29.74 in WNW 17.0 mph 31.0 mph 64 % 0.00 in 292 W/m2
11:16 58.3 °F 47.0 °F 29.75 in WNW 16.0 mph 32.0 mph 66 % 0.00 in 204 W/m2
11:21 58.3 °F 46.6 °F 29.75 in WNW 17.0 mph 32.0 mph 65 % 0.00 in 1062 W/m2
11:26 58.8 °F 46.2 °F 29.75 in WNW 18.0 mph 33.0 mph 63 % 0.00 in 1062 W/m2
11:31 59.4 °F 46.3 °F 29.75 in WNW 18.0 mph 33.0 mph 62 % 0.00 in 1141 W/m2
11:36 59.7 °F 46.2 °F 29.75 in WNW 16.0 mph 29.0 mph 61 % 0.00 in 229 W/m2
11:41 59.2 °F 46.6 °F 29.75 in WNW 18.0 mph 33.0 mph 63 % 0.00 in 914 W/m2
11:51 60.3 °F 47.2 °F 29.76 in WNW 17.0 mph 28.0 mph 62 % 0.00 in 942 W/m2
11:56 60.6 °F 46.2 °F 29.75 in WNW 17.0 mph 36.0 mph 59 % 0.00 in 942 W/m2
12:01 60.1 °F 45.2 °F 29.76 in WNW 20.0 mph 36.0 mph 58 % 0.00 in 1090 W/m2
12:06 60.1 °F 45.7 °F 29.76 in WNW 21.0 mph 32.0 mph 59 % 0.00 in 1111 W/m2
12:11 60.4 °F 46.5 °F 29.76 in WNW 19.0 mph 31.0 mph 60 % 0.00 in 977 W/m2
12:16 61.0 °F 46.1 °F 29.76 in WNW 19.0 mph 33.0 mph 58 % 0.00 in 329 W/m2
12:21 61.2 °F 46.3 °F 29.76 in West 19.0 mph 33.0 mph 58 % 0.00 in 1034 W/m2
12:22 61.2 °F 46.3 °F 29.76 in West 19.0 mph 33.0 mph 58 % 0.00 in 1125 W/m2
12:27 60.8 °F 45.9 °F 29.76 in WNW 19.0 mph 28.0 mph 58 % 0.00 in 316 W/m2
12:32 60.4 °F 46.0 °F 29.76 in WNW 19.0 mph 32.0 mph 59 % 0.00 in 1097 W/m2
12:37 60.3 °F 45.4 °F 29.76 in WNW 20.0 mph 32.0 mph 58 % 0.00 in 1097 W/m2
12:42 60.1 °F 46.1 °F 29.76 in West 20.0 mph 36.0 mph 60 % 0.00 in 1132 W/m2
12:47 60.1 °F 45.7 °F 29.76 in WNW 19.0 mph 36.0 mph 59 % 0.00 in 1005 W/m2
12:52 60.6 °F 46.2 °F 29.76 in WNW 19.0 mph 32.0 mph 59 % 0.00 in 962 W/m2
12:57 61.2 °F 46.3 °F 29.76 in WNW 18.0 mph 31.0 mph 58 % 0.00 in 935 W/m2
13:02 61.9 °F 46.9 °F 29.77 in WNW 17.0 mph 29.0 mph 58 % 0.00 in 1081 W/m2
13:07 62.1 °F 46.2 °F 29.77 in WNW 18.0 mph 31.0 mph 56 % 0.00 in 947 W/m2
13:12 62.1 °F 45.2 °F 29.76 in WNW 19.0 mph 31.0 mph 54 % 0.00 in 963 W/m2
13:17 62.2 °F 44.9 °F 29.77 in West 19.0 mph 32.0 mph 53 % 0.00 in 946 W/m2
13:22 61.9 °F 44.6 °F 29.77 in West 21.0 mph 35.0 mph 53 % 0.00 in 933 W/m2
13:27 62.1 °F 44.7 °F 29.77 in West 21.0 mph 35.0 mph 53 % 0.00 in 962 W/m2
13:32 62.1 °F 44.7 °F 29.77 in West 20.0 mph 32.0 mph 53 % 0.00 in 988 W/m2
13:37 61.9 °F 45.0 °F 29.77 in West 20.0 mph 32.0 mph 54 % 0.00 in 944 W/m2
13:42 61.7 °F 44.9 °F 29.77 in West 20.0 mph 32.0 mph 54 % 0.00 in 944 W/m2
13:47 61.7 °F 44.9 °F 29.77 in West 21.0 mph 33.0 mph 54 % 0.00 in 1136 W/m2
13:52 61.9 °F 45.5 °F 29.78 in West 20.0 mph 33.0 mph 55 % 0.00 in 1004 W/m2
13:57 62.4 °F 45.5 °F 29.78 in West 18.0 mph 33.0 mph 54 % 0.00 in 946 W/m2
14:02 62.4 °F 46.5 °F 29.78 in West 18.0 mph 33.0 mph 56 % 0.00 in 1000 W/m2
14:07 62.2 °F 44.9 °F 29.78 in West 20.0 mph 33.0 mph 53 % 0.00 in 1053 W/m2
14:12 61.7 °F 44.9 °F 29.79 in West 21.0 mph 34.0 mph 54 % 0.00 in 1067 W/m2
14:17 61.5 °F 45.7 °F 29.79 in West 21.0 mph 34.0 mph 56 % 0.00 in 250 W/m2
14:22 61.9 °F 46.0 °F 29.79 in WNW 19.0 mph 30.0 mph 56 % 0.00 in 1141 W/m2
14:27 62.1 °F 45.7 °F 29.79 in WNW 19.0 mph 29.0 mph 55 % 0.00 in 949 W/m2
14:32 62.4 °F 45.5 °F 29.79 in West 19.0 mph 30.0 mph 54 % 0.00 in 1011 W/m2
14:37 61.9 °F 45.0 °F 29.79 in West 19.0 mph 30.0 mph 54 % 0.00 in 204 W/m2
14:42 61.5 °F 45.7 °F 29.79 in West 18.0 mph 31.0 mph 56 % 0.00 in 902 W/m2
14:47 62.4 °F 46.0 °F 29.79 in West 16.0 mph 31.0 mph 55 % 0.00 in 956 W/m2
14:52 63.1 °F 45.7 °F 29.79 in West 16.0 mph 27.0 mph 53 % 0.00 in 881 W/m2
14:58 62.8 °F 44.9 °F 29.79 in West 19.0 mph 30.0 mph 52 % 0.00 in 851 W/m2
15:03 62.6 °F 44.7 °F 29.79 in West 19.0 mph 31.0 mph 52 % 0.00 in 858 W/m2
15:08 62.8 °F 45.4 °F 29.79 in West 19.0 mph 30.0 mph 53 % 0.00 in 780 W/m2
15:13 62.8 °F 43.9 °F 29.79 in West 19.0 mph 30.0 mph 50 % 0.00 in 728 W/m2
15:18 62.8 °F 43.9 °F 29.80 in West 20.0 mph 33.0 mph 50 % 0.00 in 879 W/m2
15:23 62.8 °F 44.4 °F 29.80 in West 20.0 mph 33.0 mph 51 % 0.00 in 817 W/m2
15:28 62.6 °F 44.2 °F 29.80 in West 19.0 mph 30.0 mph 51 % 0.00 in 735 W/m2
15:33 62.8 °F 43.9 °F 29.80 in West 18.0 mph 29.0 mph 50 % 0.00 in 747 W/m2
15:34 63.0 °F 45.1 °F 29.80 in West 18.0 mph 29.0 mph 52 % 0.00 in 846 W/m2
15:39 63.5 °F 44.5 °F 29.80 in West 17.0 mph 27.0 mph 50 % 0.00 in 747 W/m2
15:44 63.7 °F 45.2 °F 29.80 in West 16.0 mph 30.0 mph 51 % 0.00 in 768 W/m2
15:49 63.9 °F 45.4 °F 29.81 in West 15.0 mph 30.0 mph 51 % 0.00 in 775 W/m2
15:54 63.9 °F 45.4 °F 29.80 in West 13.0 mph 24.0 mph 51 % 0.00 in 673 W/m2
15:59 63.5 °F 44.5 °F 29.80 in WNW 15.0 mph 26.0 mph 50 % 0.00 in 795 W/m2
16:04 63.7 °F 44.7 °F 29.80 in WNW 17.0 mph 29.0 mph 50 % 0.00 in 599 W/m2
16:09 63.7 °F 45.2 °F 29.81 in West 15.0 mph 29.0 mph 51 % 0.00 in 512 W/m2
16:14 63.1 °F 44.7 °F 29.81 in West 14.0 mph 25.0 mph 51 % 0.00 in 385 W/m2
16:19 62.8 °F 44.9 °F 29.81 in WSW 14.0 mph 25.0 mph 52 % 0.00 in 360 W/m2
16:24 62.8 °F 45.9 °F 29.81 in West 13.0 mph 22.0 mph 54 % 0.00 in 388 W/m2
16:29 62.6 °F 45.2 °F 29.81 in West 13.0 mph 24.0 mph 53 % 0.00 in 413 W/m2
16:34 62.6 °F 45.7 °F 29.81 in West 13.0 mph 24.0 mph 54 % 0.00 in 650 W/m2
16:39 62.8 °F 45.4 °F 29.81 in West 13.0 mph 25.0 mph 53 % 0.00 in 415 W/m2
16:44 62.8 °F 45.9 °F 29.81 in West 13.0 mph 25.0 mph 54 % 0.00 in 323 W/m2
16:49 62.4 °F 45.5 °F 29.81 in West 13.0 mph 26.0 mph 54 % 0.00 in 251 W/m2
16:54 62.1 °F 45.7 °F 29.81 in West 14.0 mph 26.0 mph 55 % 0.00 in 246 W/m2
16:59 61.7 °F 45.8 °F 29.81 in West 13.0 mph 23.0 mph 56 % 0.00 in 241 W/m2
17:04 61.5 °F 46.6 °F 29.81 in West 12.0 mph 21.0 mph 58 % 0.00 in 216 W/m2
17:09 61.5 °F 46.6 °F 29.81 in West 12.0 mph 21.0 mph 58 % 0.00 in 225 W/m2
17:14 61.3 °F 46.4 °F 29.81 in West 13.0 mph 21.0 mph 58 % 0.00 in 206 W/m2
17:19 61.3 °F 46.4 °F 29.80 in West 12.0 mph 21.0 mph 58 % 0.00 in 211 W/m2
17:24 61.0 °F 46.5 °F 29.80 in WSW 12.0 mph 21.0 mph 59 % 0.00 in 299 W/m2
17:29 61.2 °F 47.2 °F 29.81 in West 11.0 mph 20.0 mph 60 % 0.00 in 272 W/m2
17:34 61.3 °F 47.3 °F 29.81 in West 11.0 mph 19.0 mph 60 % 0.00 in 221 W/m2
17:39 61.2 °F 46.7 °F 29.81 in West 12.0 mph 23.0 mph 59 % 0.00 in 227 W/m2
17:44 61.0 °F 46.5 °F 29.81 in WSW 14.0 mph 24.0 mph 59 % 0.00 in 346 W/m2
17:50 61.2 °F 47.6 °F 29.80 in WSW 13.0 mph 24.0 mph 61 % 0.00 in 279 W/m2
17:55 61.5 °F 47.5 °F 29.80 in West 10.0 mph 21.0 mph 60 % 0.00 in 285 W/m2
18:00 61.5 °F 47.5 °F 29.80 in West 10.0 mph 20.0 mph 60 % 0.00 in 290 W/m2
18:05 61.5 °F 47.1 °F 29.80 in West 11.0 mph 21.0 mph 59 % 0.00 in 271 W/m2
18:10 61.5 °F 47.5 °F 29.80 in West 12.0 mph 21.0 mph 60 % 0.00 in 243 W/m2
18:15 61.5 °F 47.5 °F 29.80 in West 11.0 mph 19.0 mph 60 % 0.00 in 311 W/m2
18:20 61.5 °F 47.1 °F 29.80 in WSW 11.0 mph 22.0 mph 59 % 0.00 in 188 W/m2
18:25 61.2 °F 46.7 °F 29.80 in West 13.0 mph 23.0 mph 59 % 0.00 in 142 W/m2
18:30 61.0 °F 47.0 °F 29.80 in West 12.0 mph 23.0 mph 60 % 0.00 in 95 W/m2
18:35 60.6 °F 46.7 °F 29.80 in West 11.0 mph 21.0 mph 60 % 0.00 in 88 W/m2
18:40 60.4 °F 46.9 °F 29.81 in West 11.0 mph 24.0 mph 61 % 0.00 in 93 W/m2
18:45 60.1 °F 46.1 °F 29.81 in West 11.0 mph 24.0 mph 60 % 0.00 in 118 W/m2
18:50 60.1 °F 45.7 °F 29.81 in West 13.0 mph 22.0 mph 59 % 0.00 in 116 W/m2
18:55 59.9 °F 45.1 °F 29.80 in West 12.0 mph 22.0 mph 58 % 0.00 in 105 W/m2
19:00 59.9 °F 44.6 °F 29.81 in West 11.0 mph 21.0 mph 57 % 0.00 in 118 W/m2
19:05 59.7 °F 44.9 °F 29.81 in West 11.0 mph 19.0 mph 58 % 0.00 in 141 W/m2
19:10 59.9 °F 45.1 °F 29.81 in West 10.0 mph 20.0 mph 58 % 0.00 in 116 W/m2
19:15 59.7 °F 44.9 °F 29.81 in WSW 10.0 mph 20.0 mph 58 % 0.00 in 113 W/m2
19:20 59.7 °F 44.9 °F 29.81 in West 9.0 mph 19.0 mph 58 % 0.00 in 113 W/m2
19:25 59.7 °F 44.9 °F 29.81 in West 10.0 mph 20.0 mph 58 % 0.00 in 111 W/m2
19:30 59.5 °F 44.3 °F 29.81 in West 11.0 mph 20.0 mph 57 % 0.00 in 83 W/m2
19:35 59.4 °F 44.6 °F 29.81 in West 12.0 mph 21.0 mph 58 % 0.00 in 65 W/m2
19:40 59.2 °F 43.9 °F 29.80 in WSW 13.0 mph 24.0 mph 57 % 0.00 in 60 W/m2
19:45 58.8 °F 44.1 °F 29.81 in WSW 14.0 mph 24.0 mph 58 % 0.00 in 51 W/m2
19:50 58.8 °F 44.1 °F 29.81 in WSW 14.0 mph 23.0 mph 58 % 0.00 in 51 W/m2
19:55 58.6 °F 44.3 °F 29.81 in WSW 13.0 mph 22.0 mph 59 % 0.00 in 54 W/m2
20:00 58.5 °F 44.2 °F 29.80 in WSW 12.0 mph 25.0 mph 59 % 0.00 in 44 W/m2
20:05 58.5 °F 44.6 °F 29.80 in WSW 9.0 mph 25.0 mph 60 % 0.00 in 37 W/m2
20:10 58.3 °F 44.4 °F 29.81 in WSW 8.0 mph 16.0 mph 60 % 0.00 in 30 W/m2
20:15 58.3 °F 44.9 °F 29.80 in WSW 9.0 mph 16.0 mph 61 % 0.00 in 25 W/m2
20:20 57.9 °F 44.5 °F 29.80 in WSW 8.0 mph 15.0 mph 61 % 0.00 in 21 W/m2
20:25 57.9 °F 44.5 °F 29.81 in WSW 6.0 mph 11.0 mph 61 % 0.00 in 18 W/m2
20:30 57.7 °F 44.8 °F 29.81 in WSW 5.0 mph 9.0 mph 62 % 0.00 in 19 W/m2
20:35 57.7 °F 44.8 °F 29.81 in WSW 4.0 mph 9.0 mph 62 % 0.00 in 19 W/m2
20:40 57.6 °F 45.1 °F 29.81 in SW 4.0 mph 9.0 mph 63 % 0.00 in 12 W/m2
20:45 57.6 °F 45.1 °F 29.81 in SW 4.0 mph 7.0 mph 63 % 0.00 in 9 W/m2
20:50 57.6 °F 45.1 °F 29.81 in SW 4.0 mph 8.0 mph 63 % 0.00 in 9 W/m2
20:55 57.4 °F 45.3 °F 29.80 in SW 3.0 mph 8.0 mph 64 % 0.00 in 9 W/m2
21:00 57.4 °F 45.3 °F 29.81 in SSW 3.0 mph 7.0 mph 64 % 0.00 in 7 W/m2
21:05 57.4 °F 45.7 °F 29.81 in SSW 2.0 mph 5.0 mph 65 % 0.00 in 5 W/m2
21:11 57.2 °F 45.5 °F 29.80 in SSW 3.0 mph 10.0 mph 65 % 0.00 in 0 W/m2
21:12 57.2 °F 45.9 °F 29.80 in SSW 3.0 mph 10.0 mph 66 % 0.00 in 0 W/m2
21:17 57.2 °F 46.3 °F 29.80 in South 4.0 mph 10.0 mph 67 % 0.00 in 0 W/m2
21:22 57.0 °F 46.6 °F 29.80 in SSW 4.0 mph 7.0 mph 68 % 0.00 in 0 W/m2
21:27 56.8 °F 46.8 °F 29.80 in SSW 5.0 mph 10.0 mph 69 % 0.00 in 0 W/m2
21:32 56.7 °F 47.0 °F 29.80 in SW 6.0 mph 10.0 mph 70 % 0.00 in 0 W/m2
21:37 56.7 °F 47.4 °F 29.80 in SSW 5.0 mph 9.0 mph 71 % 0.00 in 0 W/m2
21:42 56.5 °F 47.6 °F 29.80 in SSW 5.0 mph 9.0 mph 72 % 0.00 in 0 W/m2
21:47 56.3 °F 47.8 °F 29.80 in SSW 6.0 mph 9.0 mph 73 % 0.00 in 0 W/m2
21:52 56.1 °F 47.9 °F 29.80 in SSW 6.0 mph 10.0 mph 74 % 0.00 in 0 W/m2
21:57 56.1 °F 48.3 °F 29.80 in SSW 7.0 mph 12.0 mph 75 % 0.00 in 0 W/m2
22:02 55.9 °F 48.5 °F 29.80 in SSW 8.0 mph 14.0 mph 76 % 0.00 in 0 W/m2
22:07 55.8 °F 48.7 °F 29.79 in SSW 7.0 mph 14.0 mph 77 % 0.00 in 0 W/m2
22:12 55.8 °F 48.7 °F 29.79 in SSW 7.0 mph 11.0 mph 77 % 0.00 in 0 W/m2
22:17 55.6 °F 49.2 °F 29.79 in SSW 6.0 mph 11.0 mph 79 % 0.00 in 0 W/m2
22:22 55.6 °F 49.2 °F 29.79 in SSW 7.0 mph 12.0 mph 79 % 0.00 in 0 W/m2
22:27 55.2 °F 49.2 °F 29.78 in SSW 7.0 mph 13.0 mph 80 % 0.00 in 0 W/m2
22:33 55.2 °F 49.5 °F 29.78 in South 6.0 mph 13.0 mph 81 % 0.00 in 0 W/m2
22:38 55.0 °F 49.3 °F 29.78 in South 6.0 mph 12.0 mph 81 % 0.00 in 0 W/m2
22:48 55.0 °F 50.0 °F 29.78 in South 3.0 mph 8.0 mph 83 % 0.00 in 0 W/m2
22:58 54.9 °F 50.1 °F 29.77 in South 4.0 mph 9.0 mph 84 % 0.00 in 0 W/m2
23:03 54.7 °F 49.9 °F 29.77 in South 5.0 mph 10.0 mph 84 % 0.00 in 0 W/m2
23:08 54.5 °F 50.1 °F 29.77 in South 5.0 mph 10.0 mph 85 % 0.00 in 0 W/m2
23:13 54.5 °F 50.1 °F 29.77 in SSE 5.0 mph 9.0 mph 85 % 0.00 in 0 W/m2
23:18 54.3 °F 50.2 °F 29.76 in SSE 4.0 mph 9.0 mph 86 % 0.00 in 0 W/m2
23:23 54.3 °F 50.2 °F 29.76 in South 5.0 mph 9.0 mph 86 % 0.00 in 0 W/m2
23:28 54.1 °F 50.0 °F 29.76 in SSE 5.0 mph 9.0 mph 86 % 0.00 in 0 W/m2
23:33 54.1 °F 50.4 °F 29.76 in SSE 5.0 mph 11.0 mph 87 % 0.00 in 0 W/m2
23:38 54.1 °F 50.4 °F 29.76 in SSE 4.0 mph 11.0 mph 87 % 0.00 in 0 W/m2
23:43 54.1 °F 50.7 °F 29.75 in South 3.0 mph 7.0 mph 88 % 0.00 in 0 W/m2
23:48 54.1 °F 50.7 °F 29.75 in South 6.0 mph 16.0 mph 88 % 0.00 in 0 W/m2
23:53 54.0 °F 50.8 °F 29.75 in South 6.0 mph 16.0 mph 89 % 0.00 in 0 W/m2
23:58 54.0 °F 50.8 °F 29.75 in SSW 3.0 mph 9.0 mph 89 % 0.00 in 0 W/m2
Delerius-Weather
Compliments of Weather Underground - 2.25 mb

Data updates at regular intervals.